This is the latest recevied weather packets stored in our database for station/object WX7EM. If no packets are shown the sender has not sent any weather packets the latest 10 day(s).
| Time | Temp. | Humidity | Pressure | Rain* | Wind** | Luminosity | Snow |
|---|---|---|---|---|---|---|---|
| 1778193831 | 20° C | 63% | 1017 hPa | 0 mm | - | 79 W/m² | - |
| 1778193527 | 20° C | 63% | 1016.8 hPa | 0 mm | - | 104 W/m² | - |
| 1778193224 | 19.44° C | 64% | 1016.8 hPa | 0 mm | - | 231 W/m² | - |
| 1778192921 | 19.44° C | 64% | 1016.8 hPa | 0 mm | - | 78 W/m² | - |
| 1778192617 | 19.44° C | 65% | 1016.9 hPa | 0 mm | - | 100 W/m² | - |
| 1778192315 | 19.44° C | 64% | 1016.9 hPa | 0 mm | - | 63 W/m² | - |
| 1778192011 | 19.44° C | 67% | 1017.1 hPa | 0 mm | - | 71 W/m² | - |
| 1778191707 | 19.44° C | 65% | 1017.2 hPa | 0 mm | - | 65 W/m² | - |
| 1778191406 | 18.89° C | 66% | 1017.1 hPa | 0 mm | - | 70 W/m² | - |
| 1778191102 | 18.89° C | 67% | 1017.3 hPa | 0 mm | - | 66 W/m² | - |
| 1778190799 | 18.89° C | 66% | 1017.3 hPa | 0 mm | - | 69 W/m² | - |
| 1778190496 | 18.89° C | 66% | 1017.2 hPa | 0 mm | - | 69 W/m² | - |
| 1778190194 | 18.89° C | 66% | 1017.4 hPa | 0 mm | - | 69 W/m² | - |
| 1778189888 | 18.89° C | 65% | 1017.4 hPa | 0 mm | - | 105 W/m² | - |
| 1778189586 | 18.89° C | 66% | 1017.4 hPa | 0 mm | - | 245 W/m² | - |
| 1778189282 | 18.89° C | 67% | 1017.6 hPa | 0 mm | - | 411 W/m² | - |
| 1778188978 | 18.33° C | 69% | 1017.6 hPa | 0 mm | - | 399 W/m² | - |
| 1778188675 | 18.33° C | 66% | 1017.5 hPa | 0 mm | - | 365 W/m² | - |
| 1778188371 | 18.33° C | 67% | 1017.8 hPa | 0 mm | - | 809 W/m² | - |
| 1778188068 | 18.89° C | 66% | 1017.9 hPa | 0 mm | - | 813 W/m² | - |
| 1778187765 | 18.89° C | 65% | 1017.9 hPa | 0 mm | - | 831 W/m² | - |
| 1778187462 | 18.89° C | 66% | 1018 hPa | 0 mm | - | 829 W/m² | - |
| 1778187159 | 18.89° C | 66% | 1018 hPa | 0 mm | - | 836 W/m² | - |
| 1778186855 | 18.89° C | 66% | 1018 hPa | 0 mm | - | 840 W/m² | - |
| 1778186553 | 18.33° C | 68% | 1018.1 hPa | 0 mm | - | 846 W/m² | - |
* Rain latest hour (hover to see other rain measurements)
** Current wind speed in m/s (hover to see current wind gust speed)